Weather in Mikhaylovka

Russia / Orenburg Oblast     53°40′30″N   52°27′48″E
temp.,
°C
wind,
m/s
gust,
m/s
humid.,
%
clouds,
%
prec.,
mm/h
press.,
hPa
HPBL,
m
23 may, mon
mon2323:00+6ene1183100 0.1 99910
02:00+6se118951 0.0 99813
05:00+6s2292100 0.1 99756
08:00+7sse1188100 0.0 99772
11:00+9nnw337998 0.1 997728
14:00+7nnw448498 0.1 999577
17:00+9wsw237492 0.1 1001787
20:00+9wnw347999 0.2 1002447
24 may, tue
tue2423:00+7nnw017296 0.2 100310
02:00+5wsw118093 0.0 100410
05:00+5ssw117977 0.0 100418
08:00+7wsw237582 0.0 1006351
11:00+10w455931 0.0 10061367
14:00+13wsw3451100 0.0 10061430
17:00+13wsw3348100 0.0 10071660
20:00+12wsw2365100 0.0 100780
25 may, wed
wed2523:00+8w0064100 0.0 100810
02:00+7e1169100 0.0 100810
05:00+6se1171100 0.0 100810
08:00+9s3568100 0.0 1008238
11:00+13wsw5662100 0.0 10081155
14:00+10wnw6669100 0.1 1009846
17:00+10wnw5565100 0.2 10101177
20:00+8nw577195 0.0 1011535
26 may, thu
thu2623:00+5wnw23785 0.0 101238
02:00+4wnw12825 0.0 101211
05:00+3w22885 0.0 101313
08:00+6w477610 0.0 1013462
11:00+10w6863100 0.1 10131523
14:00+11wsw786096 0.3 10131529
17:00+12wsw695173 0.4 10132119
20:00+10sw596675 0.1 1012731
27 may, fri
fri2723:00+6s41079100 0.1 1011200
02:00+9s61467100 0.1 1008517
05:00+8ssw71692100 7.3 1005827
08:00+10ssw71491100 2.3 1005512
11:00+12ssw81386100 2.7 1004844
14:00+11ssw81488100 1.1 1003980
17:00+13ssw8118486 1.9 1003996
20:00+13s6118591 1.0 1002716